| time (UTC) | temp F | wind direction | speed MPH | gust MPH | rain 1hr in | rain 24hr in | rain mn in | humidity % | barometer mb |
| 20260506200528 | 43 | 307 | 0.0 | 3.0 | 0.03 | 0.63 | 0.52 | 93 | 1008.3 |
| 20260506200118 | 43 | 299 | 0.0 | 5.0 | 0.03 | 0.63 | 0.52 | 93 | 1008.3 |
| 20260506195613 | 43 | 273 | 0.0 | 5.0 | 0.03 | 0.63 | 0.52 | 93 | 1008.3 |
| 20260506195125 | 43 | 313 | 0.0 | 3.0 | 0.03 | 0.62 | 0.51 | 93 | 1008.2 |
| 20260506194524 | 43 | 337 | 0.0 | 0.0 | 0.03 | 0.62 | 0.51 | 93 | 1008.2 |
| 20260506194041 | 43 | 265 | 0.0 | 1.0 | 0.04 | 0.62 | 0.51 | 93 | 1008.2 |
| 20260506193556 | 43 | 338 | 0.0 | 1.0 | 0.04 | 0.62 | 0.51 | 93 | 1008.1 |
| 20260506193110 | 43 | 299 | 0.0 | 1.0 | 0.04 | 0.62 | 0.51 | 93 | 1008.0 |
| 20260506192514 | 43 | 302 | 0.0 | 1.0 | 0.03 | 0.61 | 0.50 | 93 | 1008.0 |
| 20260506192037 | 43 | 294 | 0.0 | 2.0 | 0.03 | 0.61 | 0.50 | 93 | 1008.0 |
| 20260506191604 | 43 | 273 | 0.0 | 2.0 | 0.03 | 0.61 | 0.50 | 93 | 1007.9 |
| 20260506191124 | 43 | 278 | 0.0 | 2.0 | 0.03 | 0.61 | 0.50 | 93 | 1007.9 |
| 20260506190509 | 43 | 302 | 0.0 | 2.0 | 0.02 | 0.60 | 0.49 | 93 | 1008.0 |
| 20260506190045 | 44 | 297 | 0.0 | 2.0 | 0.02 | 0.60 | 0.49 | 93 | 1007.9 |
| 20260506185606 | 44 | 294 | 0.0 | 4.0 | 0.02 | 0.64 | 0.49 | 93 | 1007.9 |
| 20260506185120 | 44 | 305 | 0.0 | 4.0 | 0.01 | 0.63 | 0.48 | 93 | 1007.8 |
| 20260506184524 | 44 | 296 | 0.0 | 1.0 | 0.01 | 0.63 | 0.48 | 93 | 1007.6 |
| 20260506184042 | 44 | 314 | 0.0 | 0.0 | 0.00 | 0.62 | 0.47 | 93 | 1007.5 |
| 20260506183602 | 44 | 318 | 0.0 | 0.0 | 0.00 | 0.62 | 0.47 | 93 | 1007.5 |
| 20260506183007 | 44 | 323 | 0.0 | 0.0 | 0.00 | 0.62 | 0.47 | 93 | 1007.4 |
| 20260506182526 | 44 | 306 | 0.0 | 0.0 | 0.00 | 0.62 | 0.47 | 93 | 1007.3 |
| 20260506182044 | 44 | 296 | 0.0 | 0.0 | 0.00 | 0.62 | 0.47 | 93 | 1007.2 |
| 20260506181519 | 44 | 304 | 0.0 | 0.0 | 0.00 | 0.62 | 0.47 | 93 | 1007.2 |
| 20260506181034 | 44 | 318 | 0.0 | 0.0 | 0.00 | 0.62 | 0.47 | 93 | 1007.2 |
| 20260506180554 | 44 | 307 | 0.0 | 0.0 | 0.00 | 0.62 | 0.47 | 93 | 1007.2 |
| 20260506180014 | 44 | 307 | 0.0 | 0.0 | 0.00 | 0.62 | 0.47 | 93 | 1007.0 |
| 20260506175530 | 44 | 304 | 0.0 | 0.0 | 0.01 | 0.62 | 0.47 | 93 | 1007.0 |
| 20260506175046 | 44 | 319 | 0.0 | 0.0 | 0.01 | 0.62 | 0.47 | 93 | 1007.0 |
| 20260506174518 | 44 | 302 | 0.0 | 0.0 | 0.02 | 0.62 | 0.47 | 93 | 1006.9 |
| 20260506174039 | 44 | 317 | 0.0 | 0.0 | 0.02 | 0.62 | 0.47 | 93 | 1007.0 |
| 20260506173559 | 44 | 318 | 0.0 | 0.0 | 0.02 | 0.62 | 0.47 | 93 | 1006.8 |
| 20260506173026 | 44 | 309 | 0.0 | 0.0 | 0.02 | 0.62 | 0.47 | 93 | 1006.9 |
| 20260506172544 | 44 | 27 | 0.0 | 0.0 | 0.02 | 0.62 | 0.47 | 93 | 1006.9 |
| 20260506172056 | 44 | 29 | 0.0 | 0.0 | 0.02 | 0.62 | 0.47 | 93 | 1006.8 |
| 20260506171505 | 44 | 24 | 0.0 | 0.0 | 0.02 | 0.62 | 0.47 | 93 | 1006.8 |
| 20260506171026 | 43 | 323 | 0.0 | 0.0 | 0.02 | 0.62 | 0.47 | 93 | 1006.8 |
| 20260506170549 | 43 | 337 | 0.0 | 0.0 | 0.03 | 0.62 | 0.47 | 93 | 1006.8 |
| 20260506170017 | 43 | 302 | 0.0 | 0.0 | 0.03 | 0.62 | 0.47 | 93 | 1006.7 |
| 20260506165534 | 43 | 328 | 0.0 | 0.0 | 0.02 | 0.61 | 0.46 | 93 | 1006.8 |
| 20260506165056 | 43 | 10 | 0.0 | 0.0 | 0.02 | 0.61 | 0.46 | 93 | 1006.8 |
| 20260506164524 | 43 | 323 | 0.0 | 0.0 | 0.01 | 0.60 | 0.45 | 93 | 1007.0 |
| 20260506164042 | 43 | 316 | 0.0 | 0.0 | 0.02 | 0.60 | 0.45 | 93 | 1006.8 |
| 20260506163556 | 43 | 9 | 0.0 | 0.0 | 0.02 | 0.60 | 0.45 | 93 | 1006.7 |
| 20260506163109 | 42 | 28 | 0.0 | 0.0 | 0.02 | 0.60 | 0.45 | 93 | 1006.8 |
| 20260506162515 | 42 | 307 | 0.0 | 0.0 | 0.02 | 0.60 | 0.45 | 93 | 1006.9 |
| 20260506162041 | 42 | 327 | 0.0 | 0.0 | 0.02 | 0.60 | 0.45 | 93 | 1007.0 |
| 20260506161520 | 42 | 337 | 0.0 | 0.0 | 0.02 | 0.60 | 0.45 | 93 | 1007.0 |
| 20260506161028 | 42 | 353 | 0.0 | 0.0 | 0.02 | 0.60 | 0.45 | 93 | 1007.1 |
| 20260506160550 | 42 | 352 | 0.0 | 0.0 | 0.01 | 0.59 | 0.44 | 93 | 1007.0 |
| 20260506160022 | 42 | 327 | 0.0 | 0.0 | 0.02 | 0.59 | 0.44 | 93 | 1007.1 |
| 20260506155540 | 42 | 282 | 0.0 | 0.0 | 0.02 | 0.59 | 0.44 | 93 | 1007.0 |
| 20260506155100 | 42 | 20 | 0.0 | 0.0 | 0.02 | 0.59 | 0.44 | 93 | 1007.0 |
| 20260506154506 | 42 | 316 | 0.0 | 0.0 | 0.02 | 0.59 | 0.44 | 93 | 1007.2 |
| 20260506154029 | 42 | 295 | 0.0 | 0.0 | 0.02 | 0.57 | 0.43 | 93 | 1007.1 |
| 20260506153547 | 42 | 65 | 0.0 | 0.0 | 0.02 | 0.57 | 0.43 | 93 | 1007.0 |
| 20260506153022 | 42 | 1 | 0.0 | 0.0 | 0.03 | 0.57 | 0.43 | 93 | 1007.1 |
| 20260506152540 | 42 | 303 | 0.0 | 0.0 | 0.03 | 0.57 | 0.43 | 93 | 1007.3 |
| 20260506152100 | 42 | 306 | 0.0 | 0.0 | 0.04 | 0.57 | 0.43 | 93 | 1007.1 |
| 20260506151502 | 42 | 325 | 0.0 | 0.0 | 0.04 | 0.57 | 0.43 | 93 | 1006.7 |
| 20260506151022 | 42 | 337 | 0.0 | 0.0 | 0.05 | 0.57 | 0.43 | 93 | 1006.6 |
| 20260506150546 | 42 | 31 | 0.0 | 0.0 | 0.05 | 0.57 | 0.43 | 93 | 1006.5 |
| 20260506150010 | 42 | 48 | 0.0 | 0.0 | 0.05 | 0.56 | 0.42 | 93 | 1006.4 |
| 20260506145529 | 42 | 318 | 0.0 | 0.0 | 0.05 | 0.56 | 0.42 | 93 | 1006.4 |
| 20260506145046 | 42 | 29 | 0.0 | 0.0 | 0.06 | 0.56 | 0.42 | 93 | 1006.5 |
| 20260506144512 | 42 | 58 | 0.0 | 0.0 | 0.06 | 0.56 | 0.42 | 93 | 1006.5 |
| 20260506144030 | 42 | 337 | 0.0 | 0.0 | 0.06 | 0.56 | 0.41 | 93 | 1006.7 |
| 20260506143546 | 42 | 67 | 0.0 | 0.0 | 0.06 | 0.56 | 0.41 | 93 | 1006.5 |
| 20260506143022 | 42 | 43 | 0.0 | 0.0 | 0.06 | 0.55 | 0.40 | 93 | 1006.6 |
| 20260506142536 | 42 | 20 | 0.0 | 0.0 | 0.07 | 0.55 | 0.40 | 93 | 1006.7 |
| 20260506141520 | 42 | 24 | 0.0 | 0.0 | 0.07 | 0.54 | 0.39 | 93 | 1006.6 |
| 20260506141038 | 42 | 32 | 0.0 | 0.0 | 0.07 | 0.53 | 0.38 | 93 | 1006.7 |
| 20260506140557 | 42 | 34 | 0.0 | 0.0 | 0.08 | 0.53 | 0.38 | 93 | 1006.7 |
| 20260506140006 | 42 | 35 | 0.0 | 0.0 | 0.09 | 0.52 | 0.37 | 93 | 1006.6 |
| 20260506135526 | 42 | 64 | 0.0 | 0.0 | 0.09 | 0.52 | 0.37 | 93 | 1006.7 |
| 20260506135042 | 42 | 44 | 0.0 | 0.0 | 0.09 | 0.51 | 0.36 | 93 | 1006.6 |
| 20260506134620 | 42 | 49 | 0.0 | 1.0 | 0.09 | 0.51 | 0.36 | 93 | 1006.7 |
| 20260506134017 | 42 | 1 | 0.0 | 1.0 | 0.09 | 0.50 | 0.35 | 93 | 1006.8 |
| 20260506133535 | 42 | 32 | 0.0 | 0.0 | 0.10 | 0.50 | 0.35 | 93 | 1006.8 |
| 20260506133002 | 42 | 15 | 0.0 | 0.0 | 0.09 | 0.49 | 0.34 | 93 | 1006.9 |
| 20260506132524 | 42 | 27 | 0.0 | 0.0 | 0.09 | 0.48 | 0.33 | 93 | 1006.9 |
| 20260506132040 | 42 | 32 | 0.0 | 0.0 | 0.09 | 0.48 | 0.33 | 93 | 1006.7 |
| 20260506131521 | 42 | 29 | 0.0 | 0.0 | 0.09 | 0.47 | 0.32 | 93 | 1006.8 |
| 20260506131035 | 42 | 335 | 0.0 | 0.0 | 0.08 | 0.46 | 0.31 | 93 | 1007.0 |
| 20260506130556 | 42 | 337 | 0.0 | 0.0 | 0.07 | 0.44 | 0.28 | 93 | 1006.9 |
| 20260506130011 | 42 | 326 | 0.0 | 0.0 | 0.06 | 0.43 | 0.28 | 93 | 1006.9 |
| 20260506125530 | 42 | 10 | 0.0 | 0.0 | 0.07 | 0.43 | 0.28 | 93 | 1006.6 |
| 20260506125048 | 42 | 55 | 0.0 | 0.0 | 0.07 | 0.42 | 0.27 | 93 | 1006.8 |
| 20260506124510 | 42 | 39 | 0.0 | 0.0 | 0.06 | 0.41 | 0.26 | 93 | 1006.5 |
| 20260506124022 | 42 | 28 | 0.0 | 0.0 | 0.07 | 0.41 | 0.26 | 93 | 1006.6 |
| 20260506123544 | 42 | 58 | 0.0 | 0.0 | 0.06 | 0.40 | 0.25 | 93 | 1006.5 |
| 20260506123104 | 42 | 76 | 0.0 | 0.0 | 0.07 | 0.40 | 0.25 | 93 | 1006.5 |
| 20260506122622 | 42 | 69 | 0.0 | 0.0 | 0.07 | 0.39 | 0.24 | 93 | 1006.7 |
| 20260506122007 | 42 | 72 | 0.0 | 0.0 | 0.08 | 0.39 | 0.24 | 93 | 1006.6 |
| 20260506121549 | 42 | 66 | 0.0 | 0.0 | 0.08 | 0.38 | 0.23 | 93 | 1006.7 |
| 20260506121110 | 42 | 43 | 0.0 | 0.0 | 0.08 | 0.38 | 0.23 | 93 | 1006.7 |
| 20260506120628 | 42 | 59 | 0.0 | 0.0 | 0.08 | 0.37 | 0.22 | 93 | 1006.8 |
| 20260506120042 | 42 | 34 | 0.0 | 0.0 | 0.09 | 0.37 | 0.22 | 93 | 1006.8 |
| 20260506115602 | 42 | 66 | 0.0 | 0.0 | 0.00 | 0.00 | 0.21 | 93 | 1006.6 |
| 20260506115121 | 42 | 40 | 0.0 | 0.0 | 0.08 | 0.35 | 0.20 | 93 | 1006.6 |
| 20260506114526 | 43 | 114 | 0.0 | 0.0 | 0.08 | 0.35 | 0.20 | 93 | 1006.7 |
| 20260506114038 | 43 | 39 | 0.0 | 0.0 | 0.08 | 0.34 | 0.19 | 93 | 1006.6 |
| 20260506113556 | 43 | 261 | 0.0 | 0.0 | 0.08 | 0.34 | 0.19 | 93 | 1006.9 |
| 20260506113005 | 43 | 22 | 0.0 | 0.0 | 0.07 | 0.33 | 0.18 | 93 | 1006.7 |
| 20260506112520 | 43 | 289 | 0.0 | 0.0 | 0.07 | 0.32 | 0.17 | 93 | 1006.6 |
| 20260506112040 | 43 | 38 | 0.0 | 0.0 | 0.06 | 0.31 | 0.16 | 93 | 1006.8 |
| 20260506111513 | 43 | 72 | 0.0 | 0.0 | 0.05 | 0.30 | 0.15 | 93 | 1006.7 |
| 20260506111028 | 43 | 62 | 0.0 | 0.0 | 0.04 | 0.28 | 0.14 | 93 | 1006.8 |
| 20260506110548 | 43 | 69 | 0.0 | 0.0 | 0.04 | 0.28 | 0.14 | 93 | 1006.9 |
| 20260506110119 | 43 | 58 | 0.0 | 0.0 | 0.04 | 0.28 | 0.13 | 93 | 1006.9 |
| 20260506105515 | 43 | 266 | 0.0 | 0.0 | 0.03 | 0.27 | 0.12 | 93 | 1007.0 |
| 20260506105036 | 43 | 29 | 0.0 | 0.0 | 0.03 | 0.27 | 0.12 | 93 | 1006.9 |
| 20260506104510 | 43 | 50 | 0.0 | 0.0 | 0.03 | 0.27 | 0.12 | 93 | 1006.7 |
| 20260506104024 | 43 | 79 | 0.0 | 0.0 | 0.03 | 0.26 | 0.11 | 93 | 1006.6 |
| 20260506103544 | 43 | 72 | 0.0 | 0.0 | 0.03 | 0.26 | 0.11 | 93 | 1006.6 |
| 20260506103124 | 43 | 79 | 0.0 | 0.0 | 0.03 | 0.26 | 0.11 | 93 | 1006.5 |
| 20260506102514 | 43 | 53 | 0.0 | 0.0 | 0.02 | 0.25 | 0.10 | 93 | 1006.7 |
| 20260506102032 | 43 | 42 | 0.0 | 0.0 | 0.02 | 0.25 | 0.10 | 93 | 1006.7 |
| 20260506101615 | 43 | 46 | 0.0 | 0.0 | 0.02 | 0.25 | 0.10 | 93 | 1006.7 |
| 20260506101006 | 43 | 58 | 0.0 | 0.0 | 0.03 | 0.25 | 0.10 | 93 | 1006.9 |
| 20260506100524 | 43 | 116 | 0.0 | 0.0 | 0.03 | 0.25 | 0.10 | 93 | 1006.9 |
| 20260506100002 | 43 | 315 | 0.0 | 0.0 | 0.02 | 0.24 | 0.09 | 93 | 1007.0 |
| 20260506095524 | 43 | 53 | 0.0 | 0.0 | 0.03 | 0.24 | 0.09 | 93 | 1007.0 |
| 20260506095040 | 43 | 296 | 0.0 | 0.0 | 0.03 | 0.24 | 0.09 | 93 | 1007.5 |
| 20260506094517 | 43 | 58 | 0.0 | 0.0 | 0.04 | 0.24 | 0.09 | 93 | 1007.1 |
| 20260506094039 | 43 | 257 | 0.0 | 0.0 | 0.03 | 0.23 | 0.08 | 93 | 1007.8 |
| 20260506093554 | 43 | 48 | 0.0 | 1.0 | 0.04 | 0.23 | 0.08 | 93 | 1007.2 |
| 20260506093126 | 43 | 278 | 0.0 | 1.0 | 0.04 | 0.23 | 0.08 | 93 | 1007.0 |
| 20260506092522 | 43 | 50 | 0.0 | 1.0 | 0.04 | 0.23 | 0.08 | 93 | 1007.7 |
| 20260506092039 | 44 | 354 | 0.0 | 0.0 | 0.04 | 0.23 | 0.08 | 93 | 1007.5 |
| 20260506091558 | 44 | 52 | 0.0 | 1.0 | 0.04 | 0.23 | 0.08 | 93 | 1007.3 |
| 20260506091115 | 44 | 62 | 0.0 | 0.0 | 0.04 | 0.22 | 0.07 | 93 | 1007.0 |
| 20260506090630 | 44 | 318 | 0.0 | 0.0 | 0.04 | 0.22 | 0.07 | 93 | 1007.0 |
| 20260506090021 | 45 | 358 | 0.0 | 0.0 | 0.04 | 0.22 | 0.07 | 93 | 1007.2 |
| 20260506085539 | 45 | 28 | 0.0 | 0.0 | 0.03 | 0.22 | 0.06 | 93 | 1007.2 |
| 20260506085058 | 45 | 165 | 0.0 | 0.0 | 0.03 | 0.22 | 0.06 | 93 | 1007.4 |
| 20260506084510 | 45 | 337 | 0.0 | 0.0 | 0.02 | 0.21 | 0.05 | 93 | 1007.6 |
| 20260506084023 | 45 | 358 | 0.0 | 0.0 | 0.02 | 0.21 | 0.05 | 93 | 1007.5 |
| 20260506083541 | 45 | 352 | 0.0 | 0.0 | 0.01 | 0.20 | 0.04 | 93 | 1007.5 |
| 20260506083005 | 45 | 335 | 0.0 | 0.0 | 0.01 | 0.20 | 0.04 | 93 | 1007.5 |
| 20260506082519 | 45 | 3 | 0.0 | 1.0 | 0.01 | 0.20 | 0.04 | 93 | 1007.2 |
| 20260506082040 | 45 | 43 | 0.0 | 1.0 | 0.01 | 0.20 | 0.04 | 93 | 1007.1 |
| 20260506081506 | 45 | 3 | 0.0 | 0.0 | 0.01 | 0.20 | 0.04 | 93 | 1007.2 |
| 20260506081028 | 45 | 333 | 0.0 | 0.0 | 0.00 | 0.19 | 0.03 | 93 | 1007.3 |
| 20260506080543 | 45 | 32 | 0.0 | 0.0 | 0.00 | 0.19 | 0.03 | 93 | 1007.1 |
| 20260506073123 | 45 | 74 | 0.0 | 0.0 | 0.00 | 0.19 | 0.03 | 93 | 1006.8 |
| 20260506072542 | 45 | 13 | 0.0 | 0.0 | 0.03 | 0.19 | 0.03 | 93 | 1007.0 |
| 20260506072100 | 45 | 14 | 0.0 | 0.0 | 0.03 | 0.19 | 0.03 | 93 | 1007.3 |
| 20260506071510 | 45 | 27 | 0.0 | 0.0 | 0.03 | 0.19 | 0.03 | 93 | 1007.2 |
| 20260506071028 | 45 | 83 | 0.0 | 0.0 | 0.03 | 0.19 | 0.03 | 93 | 1007.2 |
| 20260506070545 | 45 | 88 | 0.0 | 0.0 | 0.03 | 0.19 | 0.03 | 93 | 1007.1 |
| 20260506062100 | 45 | 359 | 0.0 | 0.0 | 0.00 | 0.16 | 0.00 | 93 | 1007.9 |
| 20260506061518 | 45 | 290 | 0.0 | 1.0 | 0.00 | 0.16 | 0.00 | 93 | 1007.7 |
| 20260506061033 | 45 | 90 | 0.0 | 1.0 | 0.00 | 0.16 | 0.00 | 93 | 1007.2 |
| 20260506060546 | 45 | 327 | 0.0 | 1.0 | 0.00 | 0.16 | 0.00 | 93 | 1007.6 |
| 20260506051029 | 46 | 88 | 0.0 | 0.0 | 0.00 | 0.16 | 0.00 | 93 | 1008.5 |
| 20260506050548 | 46 | 84 | 0.0 | 0.0 | 0.00 | 0.16 | 0.00 | 93 | 1008.5 |
| 20260506050126 | 46 | 81 | 0.0 | 0.0 | 0.00 | 0.16 | 0.00 | 93 | 1008.7 |
| 20260506045041 | 46 | 337 | 0.0 | 0.0 | 0.00 | 0.16 | 0.00 | 93 | 1008.6 |
| 20260506044512 | 46 | 29 | 0.0 | 0.0 | 0.00 | 0.16 | 0.00 | 93 | 1008.4 |
| 20260506044029 | 46 | 70 | 0.0 | 0.0 | 0.00 | 0.16 | 0.00 | 93 | 1008.4 |
| 20260506043550 | 46 | 49 | 0.0 | 0.0 | 0.00 | 0.16 | 0.00 | 93 | 1008.6 |
| 20260506043015 | 46 | 50 | 0.0 | 0.0 | 0.00 | 0.16 | 0.00 | 93 | 1008.7 |
| 20260506042528 | 46 | 52 | 0.0 | 0.0 | 0.01 | 0.16 | 0.00 | 92 | 1008.7 |
| 20260506042045 | 47 | 48 | 0.0 | 0.0 | 0.01 | 0.16 | 0.00 | 92 | 1008.7 |
| 20260506041505 | 47 | 77 | 0.0 | 0.0 | 0.01 | 0.16 | 0.00 | 92 | 1008.8 |
| 20260506041023 | 47 | 105 | 0.0 | 0.0 | 0.01 | 0.16 | 0.00 | 92 | 1008.8 |
| 20260506040537 | 47 | 82 | 0.0 | 0.0 | 0.02 | 0.16 | 0.00 | 92 | 1009.1 |
| 20260506040005 | 47 | 81 | 0.0 | 1.0 | 0.02 | 0.16 | 0.00 | 92 | 1008.7 |
| 20260506035531 | 47 | 86 | 0.0 | 0.0 | 0.02 | 0.16 | 0.16 | 92 | 1008.8 |
| 20260506035053 | 47 | 72 | 0.0 | 0.0 | 0.03 | 0.16 | 0.16 | 92 | 1009.1 |
| 20260506034523 | 47 | 31 | 0.0 | 0.0 | 0.03 | 0.16 | 0.16 | 92 | 1008.8 |
| 20260506034039 | 47 | 150 | 0.0 | 0.0 | 0.04 | 0.16 | 0.16 | 92 | 1008.8 |
| 20260506033558 | 47 | 150 | 0.0 | 0.0 | 0.04 | 0.16 | 0.16 | 92 | 1009.0 |
| 20260506033107 | 47 | 152 | 0.0 | 0.0 | 0.05 | 0.16 | 0.16 | 92 | 1009.1 |
| 20260506032632 | 47 | 151 | 0.0 | 0.0 | 0.04 | 0.15 | 0.15 | 92 | 1009.3 |
| 20260506032040 | 47 | 154 | 0.0 | 0.0 | 0.04 | 0.15 | 0.15 | 92 | 1009.2 |
| 20260506031526 | 47 | 210 | 0.0 | 0.0 | 0.04 | 0.15 | 0.15 | 92 | 1009.1 |
| 20260506031038 | 47 | 212 | 0.0 | 0.0 | 0.04 | 0.15 | 0.15 | 92 | 1009.5 |
| 20260506030552 | 47 | 202 | 0.0 | 0.0 | 0.03 | 0.14 | 0.14 | 92 | 1009.3 |
| 20260506030018 | 47 | 148 | 0.0 | 0.0 | 0.03 | 0.14 | 0.14 | 92 | 1009.1 |
| 20260506025539 | 47 | 259 | 0.0 | 0.0 | 0.03 | 0.14 | 0.14 | 92 | 1008.9 |
| 20260506025056 | 47 | 42 | 0.0 | 0.0 | 0.02 | 0.13 | 0.13 | 92 | 1008.9 |
| 20260506024612 | 47 | 118 | 0.0 | 0.0 | 0.02 | 0.13 | 0.13 | 92 | 1009.0 |
| 20260506024015 | 47 | 117 | 0.0 | 0.0 | 0.01 | 0.12 | 0.12 | 92 | 1009.5 |
| 20260506023537 | 47 | 341 | 0.0 | 0.0 | 0.01 | 0.12 | 0.12 | 92 | 1009.1 |
| 20260506023115 | 47 | 242 | 0.0 | 0.0 | 0.00 | 0.11 | 0.11 | 92 | 1009.4 |
| 20260506022517 | 47 | 70 | 0.0 | 0.0 | 0.01 | 0.11 | 0.11 | 92 | 1009.1 |
| 20260506022038 | 47 | 275 | 0.0 | 0.0 | 0.01 | 0.11 | 0.11 | 92 | 1009.3 |
| 20260506021517 | 47 | 327 | 0.0 | 0.0 | 0.02 | 0.11 | 0.11 | 92 | 1009.2 |
| 20260506021031 | 47 | 271 | 0.0 | 0.0 | 0.02 | 0.11 | 0.11 | 92 | 1008.9 |
| 20260506020549 | 47 | 58 | 0.0 | 0.0 | 0.02 | 0.11 | 0.11 | 92 | 1008.3 |
| 20260506020005 | 47 | 29 | 0.0 | 0.0 | 0.02 | 0.11 | 0.11 | 92 | 1008.6 |
| 20260506015519 | 47 | 349 | 0.0 | 0.0 | 0.02 | 0.11 | 0.11 | 92 | 1008.7 |
| 20260506015039 | 47 | 24 | 0.0 | 0.0 | 0.02 | 0.11 | 0.11 | 92 | 1008.4 |
| 20260506014507 | 47 | 39 | 0.0 | 0.0 | 0.02 | 0.11 | 0.11 | 91 | 1008.6 |
| 20260506014022 | 47 | 339 | 0.0 | 0.0 | 0.02 | 0.11 | 0.11 | 91 | 1008.6 |
| 20260506013542 | 47 | 10 | 0.0 | 0.0 | 0.02 | 0.11 | 0.11 | 90 | 1008.8 |
| 20260506013015 | 48 | 327 | 0.0 | 0.0 | 0.01 | 0.10 | 0.10 | 89 | 1008.9 |
| 20260506012531 | 48 | 22 | 0.0 | 1.0 | 0.01 | 0.10 | 0.10 | 87 | 1008.7 |
| 20260506012047 | 49 | 328 | 0.0 | 2.0 | 0.01 | 0.10 | 0.10 | 85 | 1008.8 |
| 20260506011501 | 50 | 13 | 0.0 | 4.0 | 0.00 | 0.09 | 0.09 | 82 | 1008.8 |
| 20260506011018 | 51 | 295 | 0.0 | 7.0 | 0.00 | 0.09 | 0.09 | 80 | 1008.8 |
| 20260506010536 | 51 | 255 | 0.0 | 7.0 | 0.00 | 0.09 | 0.09 | 78 | 1008.6 |
| 20260506010014 | 52 | 306 | 0.0 | 4.0 | 0.00 | 0.09 | 0.09 | 77 | 1008.1 |
| 20260506005530 | 53 | 259 | 0.0 | 4.0 | 0.00 | 0.09 | 0.09 | 76 | 1008.1 |
| 20260506005048 | 53 | 316 | 0.0 | 3.0 | 0.00 | 0.09 | 0.09 | 77 | 1008.2 |
| 20260506004509 | 53 | 309 | 0.0 | 6.0 | 0.00 | 0.09 | 0.09 | 76 | 1008.0 |
| 20260506004025 | 53 | 309 | 0.0 | 6.0 | 0.00 | 0.09 | 0.09 | 77 | 1008.3 |
| 20260506003539 | 53 | 314 | 0.0 | 4.0 | 0.00 | 0.09 | 0.09 | 77 | 1008.0 |
| 20260506003016 | 54 | 327 | 0.0 | 1.0 | 0.00 | 0.09 | 0.09 | 77 | 1007.8 |
| 20260506002530 | 54 | 331 | 0.0 | 1.0 | 0.00 | 0.09 | 0.09 | 77 | 1007.7 |
| 20260506002046 | 54 | 272 | 0.0 | 8.0 | 0.00 | 0.09 | 0.09 | 77 | 1007.8 |
| 20260506001515 | 54 | 305 | 0.0 | 8.0 | 0.00 | 0.09 | 0.09 | 77 | 1007.9 |
| 20260506001029 | 55 | 291 | 0.0 | 2.0 | 0.00 | 0.09 | 0.09 | 78 | 1007.8 |
| 20260506000545 | 55 | 279 | 0.0 | 7.0 | 0.00 | 0.09 | 0.09 | 78 | 1007.6 |
| 20260506000038 | 55 | 48 | 0.0 | 7.0 | 0.00 | 0.09 | 0.09 | 78 | 1007.3 |
| 20260505235534 | 55 | 309 | 0.0 | 8.0 | 0.00 | 0.09 | 0.09 | 78 | 1007.1 |
| 20260505235053 | 55 | 342 | 0.0 | 8.0 | 0.00 | 0.09 | 0.09 | 78 | 1006.9 |
| 20260505234520 | 56 | 342 | 0.0 | 11.0 | 0.00 | 0.09 | 0.09 | 78 | 1006.7 |
| 20260505234027 | 56 | 304 | 0.0 | 10.0 | 0.00 | 0.09 | 0.09 | 79 | 1006.7 |
| 20260505233542 | 56 | 46 | 0.0 | 6.0 | 0.00 | 0.09 | 0.09 | 83 | 1006.4 |
| 20260505233120 | 56 | 317 | 0.0 | 0.0 | 0.00 | 0.09 | 0.09 | 86 | 1006.3 |
| 20260505232513 | 57 | 359 | 0.0 | 0.0 | 0.00 | 0.09 | 0.09 | 86 | 1006.1 |
| 20260505232033 | 57 | 41 | 0.0 | 0.0 | 0.00 | 0.09 | 0.09 | 86 | 1006.0 |
| 20260505231509 | 57 | 38 | 0.0 | 0.0 | 0.00 | 0.09 | 0.09 | 87 | 1005.9 |
| 20260505231031 | 57 | 337 | 0.0 | 0.0 | 0.00 | 0.09 | 0.09 | 88 | 1005.9 |
| 20260505230546 | 57 | 5 | 0.0 | 0.0 | 0.00 | 0.09 | 0.09 | 88 | 1005.7 |
| 20260505230047 | 58 | 355 | 0.0 | 0.0 | 0.00 | 0.09 | 0.09 | 88 | 1005.8 |
| 20260505225545 | 58 | 6 | 0.0 | 0.0 | 0.00 | 0.09 | 0.09 | 88 | 1005.7 |
| 20260505225059 | 58 | 301 | 0.0 | 0.0 | 0.00 | 0.09 | 0.09 | 88 | 1005.7 |
| 20260505224607 | 58 | 331 | 0.0 | 0.0 | 0.00 | 0.09 | 0.09 | 87 | 1005.7 |
| 20260505224020 | 59 | 27 | 0.0 | 0.0 | 0.00 | 0.09 | 0.09 | 87 | 1005.4 |
| 20260505223546 | 59 | 354 | 0.0 | 0.0 | 0.00 | 0.09 | 0.09 | 88 | 1005.2 |
| 20260505223026 | 60 | 133 | 0.0 | 4.0 | 0.00 | 0.09 | 0.09 | 88 | 1005.1 |
| 20260505222544 | 60 | 59 | 0.0 | 4.0 | 0.00 | 0.09 | 0.09 | 88 | 1004.9 |
| 20260505222057 | 61 | 9 | 0.0 | 4.0 | 0.00 | 0.09 | 0.09 | 88 | 1004.7 |
| 20260505221505 | 62 | 339 | 0.0 | 0.0 | 0.00 | 0.09 | 0.09 | 89 | 1004.7 |
| 20260505221019 | 62 | 323 | 0.0 | 0.0 | 0.00 | 0.09 | 0.09 | 89 | 1004.8 |
| 20260505220539 | 62 | 54 | 0.0 | 0.0 | 0.02 | 0.09 | 0.09 | 90 | 1004.5 |
| 20260505220010 | 62 | 294 | 0.0 | 0.0 | 0.02 | 0.09 | 0.09 | 90 | 1004.3 |
| 20260505215526 | 61 | 268 | 0.0 | 0.0 | 0.02 | 0.09 | 0.09 | 90 | 1004.3 |
| 20260505215042 | 61 | 269 | 0.0 | 0.0 | 0.02 | 0.09 | 0.09 | 90 | 1004.4 |
| 20260505214611 | 61 | 268 | 0.0 | 0.0 | 0.03 | 0.09 | 0.09 | 89 | 1004.4 |
| 20260505214131 | 61 | 283 | 0.0 | 0.0 | 0.03 | 0.09 | 0.09 | 89 | 1004.6 |
| 20260505213514 | 61 | 276 | 0.0 | 0.0 | 0.04 | 0.09 | 0.09 | 89 | 1004.5 |
| 20260505213017 | 61 | 238 | 0.0 | 0.0 | 0.04 | 0.09 | 0.09 | 89 | 1004.4 |
| 20260505212531 | 61 | 230 | 0.0 | 0.0 | 0.04 | 0.09 | 0.09 | 88 | 1004.3 |
| 20260505212053 | 61 | 252 | 0.0 | 0.0 | 0.04 | 0.09 | 0.09 | 87 | 1004.1 |
| 20260505211526 | 62 | 249 | 0.0 | 3.0 | 0.04 | 0.09 | 0.09 | 85 | 1004.2 |
| 20260505211035 | 63 | 233 | 0.0 | 4.0 | 0.04 | 0.09 | 0.09 | 83 | 1004.3 |
| 20260505210552 | 63 | 264 | 0.0 | 4.0 | 0.02 | 0.07 | 0.07 | 81 | 1004.1 |
| 20260505210012 | 63 | 227 | 0.0 | 3.0 | 0.02 | 0.07 | 0.07 | 82 | 1003.9 |
| 20260505205535 | 63 | 245 | 0.0 | 7.0 | 0.02 | 0.07 | 0.07 | 80 | 1003.9 |
| 20260505205052 | 64 | 241 | 0.0 | 7.0 | 0.02 | 0.07 | 0.07 | 77 | 1004.1 |
| 20260505204604 | 64 | 228 | 0.0 | 9.0 | 0.01 | 0.06 | 0.06 | 76 | 1004.0 |
| 20260505204124 | 64 | 254 | 0.0 | 13.0 | 0.01 | 0.06 | 0.06 | 75 | 1004.0 |
| 20260505203057 | 66 | 209 | 2.0 | 12.0 | 0.00 | 0.05 | 0.05 | 69 | 1004.1 |
| 20260505202548 | 66 | 227 | 4.0 | 11.0 | 0.00 | 0.05 | 0.05 | 69 | 1004.0 |
| 20260505202049 | 67 | 272 | 4.0 | 13.0 | 0.00 | 0.05 | 0.05 | 68 | 1003.9 |
| 20260505201549 | 67 | 252 | 4.0 | 17.0 | 0.00 | 0.05 | 0.05 | 67 | 1003.8 |
| 20260505201047 | 67 | 238 | 6.0 | 17.0 | 0.00 | 0.05 | 0.05 | 67 | 1003.8 |